📊 Raw Sensor Data
Showing records 35451 to 35475 of 84,878 total
| ID | Distance (ft) | Battery V | Battery A | Int Temp (°F) | Int Humid (%) | Ext Temp (°F) | Solar V | RSSI | SNR | Time Stamp |
|---|---|---|---|---|---|---|---|---|---|---|
| 49440 | 15.7 | 3.84 | 0 | 68 | 44 | 71 | 5.10 | -71 | 7 | 08/17/2025 08:30 AM |
| 49439 | 15.7 | 3.84 | 0 | 67 | 44 | 70 | 5.10 | -70 | 8 | 08/17/2025 08:15 AM |
| 49438 | 15.7 | 4.08 | 0 | 66 | 44 | 69 | 5.10 | -69 | 8 | 08/17/2025 08:00 AM |
| 49437 | 15.7 | 3.84 | 0 | 65 | 43 | 69 | 5.10 | -69 | 8 | 08/17/2025 07:45 AM |
| 49436 | 15.7 | 3.87 | 12 | 63 | 43 | 68 | 4.50 | -70 | 8 | 08/17/2025 07:30 AM |
| 49435 | 15.6 | 3.91 | 5 | 62 | 43 | 67 | 4.50 | -70 | 8 | 08/17/2025 07:15 AM |
| 49434 | 15.6 | 3.71 | 0 | 61 | 43 | 65 | 4.50 | -69 | 8 | 08/17/2025 07:00 AM |
| 49433 | 15.5 | 3.69 | -6 | 59 | 44 | 62 | 4.50 | -69 | 8 | 08/17/2025 06:45 AM |
| 49432 | 15.5 | 3.67 | -10 | 59 | 44 | 60 | 4.40 | -69 | 9 | 08/17/2025 06:30 AM |
| 49431 | 15.5 | 3.69 | -5 | 59 | 44 | 60 | 1.40 | -70 | 9 | 08/17/2025 06:15 AM |
| 49430 | 15.6 | 3.85 | -5 | 59 | 44 | 60 | 0.00 | -69 | 8 | 08/17/2025 06:00 AM |
| 49429 | 15.5 | 3.85 | -5 | 60 | 44 | 60 | 0.00 | -69 | 8 | 08/17/2025 05:45 AM |
| 49428 | 15.5 | 3.85 | -5 | 60 | 44 | 61 | 0.00 | -71 | 8 | 08/17/2025 05:30 AM |
| 49427 | 15.5 | 3.69 | -5 | 60 | 44 | 61 | 0.00 | -69 | 8 | 08/17/2025 05:15 AM |
| 49426 | 15.6 | 3.70 | -5 | 60 | 44 | 61 | 0.00 | -69 | 8 | 08/17/2025 05:00 AM |
| 49425 | 15.6 | 3.85 | -5 | 60 | 44 | 61 | 0.10 | -69 | 9 | 08/17/2025 04:45 AM |
| 49424 | 15.6 | 3.86 | -5 | 60 | 44 | 61 | 0.00 | -68 | 8 | 08/17/2025 04:30 AM |
| 49423 | 15.5 | 3.70 | -5 | 60 | 44 | 61 | 0.00 | -70 | 8 | 08/17/2025 04:15 AM |
| 49422 | 15.6 | 3.71 | -5 | 59 | 45 | 60 | 0.00 | -69 | 8 | 08/17/2025 04:00 AM |
| 49421 | 15.6 | 3.70 | -5 | 60 | 45 | 60 | 0.00 | -68 | 8 | 08/17/2025 03:45 AM |
| 49420 | 15.6 | 3.86 | -5 | 60 | 45 | 60 | 0.10 | -69 | 8 | 08/17/2025 03:30 AM |
| 49419 | 15.6 | 3.71 | -5 | 61 | 45 | 61 | 0.00 | -68 | 8 | 08/17/2025 03:15 AM |
| 49418 | 15.6 | 3.72 | -5 | 61 | 45 | 62 | 0.10 | -68 | 8 | 08/17/2025 03:00 AM |
| 49417 | 15.6 | 3.72 | -5 | 62 | 45 | 62 | 0.00 | -69 | 8 | 08/17/2025 02:45 AM |
| 49416 | 15.6 | 3.72 | -5 | 62 | 45 | 63 | 0.00 | -68 | 8 | 08/17/2025 02:30 AM |